N2PUI Weather Reports


time (UTC)temp
C
wind
direction
speed
KPH
gust
KPH
rain 1hr
cm
rain 24hr
cm
rain mn
cm
humidity
%
barometer
mb
20260509091751 5 140 0.0 0.0 0.00 0.00 0.00 91 1010.9
20260509091248 5 144 1.6 3.2 0.00 0.00 0.00 91 1011.1
20260509090745 5 146 1.6 1.6 0.00 0.00 0.00 90 1011.1
20260509090242 4 156 0.0 0.0 0.00 0.00 0.00 90 1011.2
20260509085740 4 155 0.0 0.0 0.00 0.00 0.00 90 1011.0
20260509085237 4 144 0.0 0.0 0.00 0.00 0.00 90 1011.1
20260509084733 4 148 0.0 0.0 0.00 0.00 0.00 90 1011.1
20260509084230 4 170 1.6 1.6 0.00 0.00 0.00 90 1011.1
20260509083728 4 174 1.6 3.2 0.00 0.00 0.00 90 1011.3
20260509083225 4 147 1.6 1.6 0.00 0.00 0.00 90 1011.3
20260509082721 4 130 3.2 3.2 0.00 0.00 0.00 90 1011.4
20260509082218 4 131 3.2 3.2 0.00 0.00 0.00 90 1011.6
20260509081715 4 161 0.0 0.0 0.00 0.00 0.00 90 1011.7
20260509081212 4 155 1.6 1.6 0.00 0.00 0.00 90 1011.5
20260509080711 4 155 0.0 0.0 0.00 0.00 0.00 90 1011.7
20260509080208 4 176 0.0 0.0 0.00 0.00 0.00 90 1011.6
20260509075706 4 176 0.0 0.0 0.00 0.00 0.00 90 1011.8
20260509075203 4 176 0.0 0.0 0.00 0.00 0.00 90 1011.5
20260509074700 4 176 0.0 0.0 0.00 0.00 0.00 90 1011.5
20260509074157 4 176 0.0 0.0 0.00 0.00 0.00 90 1011.4
20260509073654 4 176 0.0 0.0 0.00 0.00 0.00 89 1011.7
20260509073149 4 176 0.0 0.0 0.00 0.00 0.00 89 1011.7
20260509072647 4 176 0.0 0.0 0.00 0.00 0.00 89 1011.6
20260509072143 4 176 0.0 0.0 0.00 0.00 0.00 89 1011.6
20260509071640 4 176 0.0 0.0 0.00 0.00 0.00 89 1011.7
20260509071137 3 176 0.0 0.0 0.00 0.00 0.00 89 1011.6
20260509070634 3 176 0.0 0.0 0.00 0.00 0.00 89 1011.5
20260509070131 3 176 0.0 0.0 0.00 0.00 0.00 89 1011.5
20260509065626 3 176 0.0 0.0 0.00 0.00 0.00 89 1011.5
20260509065123 3 176 1.6 1.6 0.00 0.00 0.00 89 1011.5
20260509064620 4 176 0.0 0.0 0.00 0.00 0.00 89 1011.7
20260509064118 3 176 0.0 0.0 0.00 0.00 0.00 89 1011.8
20260509063614 4 176 1.6 1.6 0.00 0.00 0.00 89 1011.7
20260509063111 4 176 0.0 0.0 0.00 0.00 0.00 88 1011.8
20260509062608 4 176 0.0 0.0 0.00 0.00 0.00 88 1011.9
20260509062105 4 176 0.0 0.0 0.00 0.00 0.00 88 1011.8
20260509061602 3 176 0.0 0.0 0.00 0.00 0.00 88 1012.1
20260509061059 3 176 0.0 0.0 0.00 0.00 0.00 88 1012.2
20260509060557 3 176 1.6 1.6 0.00 0.00 0.00 88 1012.2
20260509060052 3 176 1.6 1.6 0.00 0.00 0.00 88 1012.1
20260509055548 3 176 0.0 0.0 0.00 0.00 0.00 88 1012.2
20260509055044 3 177 0.0 0.0 0.00 0.00 0.00 88 1012.3
20260509054541 3 177 0.0 0.0 0.00 0.00 0.00 88 1012.3
20260509054039 3 177 0.0 0.0 0.00 0.00 0.00 87 1012.2
20260509053538 3 177 0.0 0.0 0.00 0.00 0.00 87 1012.3
20260509053034 3 177 0.0 0.0 0.00 0.00 0.00 87 1012.2
20260509052532 3 177 0.0 0.0 0.00 0.00 0.00 87 1012.2
20260509052030 3 178 0.0 0.0 0.00 0.00 0.00 87 1012.2
20260509051527 3 179 0.0 0.0 0.00 0.00 0.00 87 1012.4
20260509051024 3 177 0.0 1.6 0.00 0.00 0.00 87 1012.4
20260509050521 3 166 1.6 1.6 0.00 0.00 0.00 87 1012.5
20260509050017 3 175 0.0 0.0 0.00 0.00 0.00 87 1012.3
20260509045515 3 158 0.0 0.0 0.00 0.00 0.00 87 1012.1
20260509045012 3 138 1.6 1.6 0.00 0.00 0.00 87 1012.6
20260509044509 3 147 1.6 1.6 0.00 0.00 0.00 87 1012.6
20260509044007 3 148 0.0 0.0 0.00 0.00 0.00 86 1012.4
20260509043502 3 149 0.0 0.0 0.00 0.00 0.00 86 1012.7
20260509042957 3 148 0.0 0.0 0.00 0.00 0.00 86 1012.4
20260509042455 3 148 0.0 0.0 0.00 0.00 0.00 86 1012.6
20260509041950 3 149 0.0 0.0 0.00 0.00 0.00 86 1012.5
20260509041448 3 150 1.6 1.6 0.00 0.00 0.00 86 1012.4
20260509040946 3 152 0.0 0.0 0.00 0.00 0.00 85 1012.9
20260509040444 3 152 0.0 0.0 0.00 0.00 0.00 85 1012.6
20260509035940 3 152 0.0 0.0 0.00 0.18 0.18 85 1012.7
20260509035437 3 151 0.0 0.0 0.00 0.18 0.18 84 1012.7
20260509034933 3 174 0.0 0.0 0.00 0.18 0.18 84 1012.5
20260509034431 3 176 1.6 1.6 0.00 0.18 0.18 84 1012.5
20260509033928 3 66 4.8 4.8 0.00 0.18 0.18 84 1012.6
20260509033425 3 100 3.2 3.2 0.00 0.18 0.18 83 1012.6
20260509032922 3 187 0.0 0.0 0.00 0.18 0.18 83 1012.5
20260509032420 3 191 1.6 1.6 0.00 0.18 0.18 82 1012.4
20260509031917 4 151 0.0 0.0 0.00 0.18 0.18 82 1012.5
20260509031414 4 152 0.0 0.0 0.00 0.18 0.18 82 1012.6
20260509030911 4 151 1.6 1.6 0.00 0.18 0.18 81 1012.8
20260509030410 3 174 0.0 0.0 0.00 0.18 0.18 80 1012.8
20260509025907 4 111 1.6 3.2 0.00 0.18 0.18 80 1012.6
20260509025402 4 153 1.6 1.6 0.00 0.18 0.18 79 1012.7
20260509024857 4 106 3.2 3.2 0.00 0.18 0.18 79 1012.7
20260509024353 4 117 1.6 1.6 0.00 0.18 0.18 78 1012.7
20260509023851 5 132 1.6 1.6 0.00 0.18 0.18 77 1012.7
20260509023348 5 110 3.2 3.2 0.00 0.18 0.18 77 1012.7
20260509022844 5 134 1.6 1.6 0.00 0.18 0.18 76 1012.7
20260509022342 5 131 1.6 1.6 0.00 0.18 0.18 76 1012.7
20260509021838 5 140 0.0 0.0 0.00 0.18 0.18 75 1012.6
20260509021336 5 111 3.2 3.2 0.00 0.18 0.18 75 1012.6
20260509020833 6 106 3.2 3.2 0.00 0.18 0.18 75 1012.8
20260509020332 6 139 1.6 3.2 0.00 0.18 0.18 74 1012.7
20260509015828 6 165 0.0 0.0 0.00 0.18 0.18 74 1012.7
20260509015327 6 163 0.0 0.0 0.00 0.18 0.18 74 1012.8
20260509014823 6 179 1.6 1.6 0.00 0.18 0.18 73 1012.4
20260509014320 7 140 1.6 1.6 0.00 0.18 0.18 73 1012.4
20260509013817 7 141 1.6 1.6 0.00 0.18 0.18 73 1012.4
20260509013313 7 139 1.6 3.2 0.00 0.18 0.18 74 1012.5
20260509012809 7 145 0.0 0.0 0.00 0.18 0.18 74 1012.3
20260509012307 7 129 1.6 1.6 0.00 0.18 0.18 74 1012.2
20260509011803 7 142 1.6 1.6 0.00 0.18 0.18 74 1012.4
20260509011301 7 155 0.0 1.6 0.00 0.18 0.18 73 1012.3
20260509010758 7 159 0.0 1.6 0.00 0.18 0.18 73 1012.3
20260509010255 7 162 0.0 0.0 0.00 0.18 0.18 72 1012.1
20260509005752 8 162 0.0 0.0 0.00 0.18 0.18 70 1012.0
20260509005250 8 161 1.6 1.6 0.00 0.18 0.18 68 1011.8
20260509004744 8 338 1.6 1.6 0.00 0.18 0.18 68 1011.7
20260509004241 8 113 3.2 3.2 0.00 0.18 0.18 69 1011.6
20260509003739 8 166 0.0 0.0 0.00 0.18 0.18 68 1011.7
20260509003236 8 166 0.0 0.0 0.00 0.18 0.18 67 1011.6
20260509002734 8 167 0.0 0.0 0.00 0.18 0.18 67 1011.5
20260509002231 8 153 0.0 1.6 0.00 0.18 0.18 67 1011.5
20260509001729 8 128 1.6 1.6 0.00 0.18 0.18 66 1011.3
20260509001224 8 100 3.2 3.2 0.00 0.18 0.18 64 1011.3
20260509000723 8 58 3.2 3.2 0.00 0.18 0.18 63 1011.4
20260509000220 9 83 3.2 3.2 0.00 0.18 0.18 61 1011.4
20260508235716 10 92 3.2 3.2 0.00 0.18 0.18 58 1011.4
20260508235213 10 40 4.8 4.8 0.00 0.18 0.18 58 1011.3
20260508234711 10 109 1.6 1.6 0.00 0.18 0.18 56 1011.2
20260508234207 11 98 3.2 3.2 0.00 0.18 0.18 56 1011.1
20260508233706 11 72 3.2 3.2 0.00 0.18 0.18 51 1011.0
20260508233204 11 22 4.8 4.8 0.00 0.18 0.18 51 1011.0
20260508232701 12 343 4.8 4.8 0.00 0.18 0.18 49 1011.1
20260508232157 12 99 3.2 3.2 0.00 0.18 0.18 50 1011.1
20260508231655 12 212 3.2 3.2 0.00 0.18 0.18 47 1011.3
20260508231152 12 206 0.0 0.0 0.00 0.18 0.18 49 1011.1
20260508230649 12 275 1.6 3.2 0.00 0.18 0.18 49 1010.9
20260508230145 12 102 1.6 1.6 0.00 0.18 0.18 48 1011.2
20260508225643 12 229 1.6 1.6 0.00 0.18 0.18 49 1011.1
20260508225139 12 244 1.6 1.6 0.00 0.18 0.18 49 1010.8
20260508224637 12 48 6.4 8.0 0.00 0.18 0.18 49 1010.9
20260508224134 12 56 4.8 4.8 0.00 0.18 0.18 48 1011.0
20260508223632 12 279 6.4 9.7 0.00 0.18 0.18 47 1011.0
20260508223129 13 357 4.8 4.8 0.00 0.18 0.18 47 1010.9
20260508222626 12 40 3.2 3.2 0.00 0.18 0.18 47 1010.9
20260508222123 12 298 4.8 4.8 0.00 0.18 0.18 48 1011.0
20260508221619 12 5 4.8 8.0 0.00 0.18 0.18 49 1010.9
20260508221115 13 314 6.4 8.0 0.00 0.18 0.18 47 1011.0
20260508220612 13 327 8.0 9.7 0.00 0.18 0.18 46 1011.0
20260508220108 13 185 0.0 1.6 0.00 0.18 0.18 45 1011.1
20260508215605 12 183 1.6 1.6 0.00 0.18 0.18 46 1011.0
20260508215102 12 240 3.2 3.2 0.00 0.18 0.18 48 1011.2
20260508214559 12 101 3.2 3.2 0.00 0.18 0.18 49 1011.1
20260508214055 12 81 1.6 3.2 0.00 0.18 0.18 48 1011.2
20260508213553 12 28 4.8 4.8 0.00 0.18 0.18 49 1011.1
20260508213048 12 116 3.2 3.2 0.00 0.18 0.18 48 1011.1
20260508212545 13 283 6.4 8.0 0.00 0.18 0.18 46 1011.1
20260508212042 13 260 3.2 3.2 0.00 0.18 0.18 46 1011.3
20260508211537 12 190 3.2 3.2 0.00 0.18 0.18 46 1011.0
20260508211034 13 11 6.4 8.0 0.00 0.18 0.18 47 1011.2
20260508210530 12 313 4.8 4.8 0.00 0.18 0.18 47 1011.1
20260508210028 13 233 3.2 4.8 0.00 0.18 0.18 46 1011.4
20260508205525 13 25 8.0 9.7 0.00 0.18 0.18 47 1011.4
20260508205021 12 310 3.2 3.2 0.00 0.18 0.18 48 1011.2
20260508204518 12 209 4.8 4.8 0.00 0.18 0.18 47 1011.5
20260508204014 12 298 6.4 9.7 0.00 0.18 0.18 47 1011.4
20260508203510 13 301 8.0 11.3 0.00 0.18 0.18 45 1011.6
20260508203006 12 264 4.8 8.0 0.00 0.18 0.18 48 1011.7
20260508202503 13 121 1.6 3.2 0.00 0.18 0.18 49 1011.8
20260508202000 13 291 9.7 12.9 0.00 0.18 0.18 46 1011.6
20260508201456 12 270 6.4 8.0 0.00 0.18 0.18 49 1011.7
20260508200953 12 167 0.0 1.6 0.00 0.18 0.18 49 1011.7
20260508200450 12 194 3.2 3.2 0.00 0.18 0.18 52 1012.0
20260508195945 11 13 6.4 9.7 0.00 0.18 0.18 53 1012.2
20260508195443 12 298 6.4 8.0 0.00 0.18 0.18 53 1012.0
20260508194939 11 276 9.7 12.9 0.00 0.18 0.18 53 1012.0
20260508194436 11 347 6.4 8.0 0.00 0.18 0.18 55 1011.9
20260508193933 11 189 3.2 4.8 0.00 0.18 0.18 56 1012.2
20260508193430 11 226 8.0 9.7 0.00 0.18 0.18 54 1012.3
20260508192926 11 309 9.7 14.5 0.00 0.18 0.18 55 1012.5
20260508192423 11 328 8.0 11.3 0.00 0.18 0.18 57 1012.4
20260508191920 11 235 3.2 3.2 0.00 0.18 0.18 56 1012.5
20260508191417 11 4 3.2 4.8 0.00 0.18 0.18 57 1012.4
20260508190914 10 240 1.6 4.8 0.00 0.18 0.18 60 1012.5
20260508190411 10 305 8.0 11.3 0.00 0.18 0.18 58 1012.6
20260508185907 10 13 14.5 22.5 0.00 0.18 0.18 58 1012.6
20260508185405 11 273 4.8 9.7 0.00 0.18 0.18 58 1012.8
20260508184901 10 239 8.0 9.7 0.00 0.18 0.18 60 1012.8
20260508184359 10 298 11.3 14.5 0.00 0.18 0.18 60 1012.8
20260508183850 10 335 6.4 9.7 0.00 0.18 0.18 60 1012.7
20260508183346 10 291 9.7 12.9 0.00 0.18 0.18 60 1012.8
20260508182842 11 327 6.4 11.3 0.00 0.18 0.18 59 1012.9
20260508182339 10 182 0.0 0.0 0.00 0.18 0.18 65 1012.9
20260508181835 9 228 4.8 8.0 0.00 0.18 0.18 64 1012.9
20260508181332 10 156 0.0 0.0 0.00 0.18 0.18 65 1013.0
20260508180829 10 231 6.4 9.7 0.00 0.18 0.18 67 1013.1
20260508180326 9 273 6.4 9.7 0.00 0.18 0.18 68 1013.1
20260508175822 9 190 0.0 0.0 0.00 0.18 0.18 71 1013.3
20260508175318 8 161 0.0 0.0 0.00 0.18 0.18 73 1013.0
20260508174817 8 157 3.2 3.2 0.00 0.18 0.18 71 1013.0
20260508174314 8 192 1.6 1.6 0.00 0.18 0.18 72 1013.0
20260508173810 8 197 0.0 0.0 0.00 0.18 0.18 73 1013.4
20260508173307 7 345 4.8 4.8 0.00 0.18 0.18 73 1013.1
20260508172803 8 222 3.2 3.2 0.00 0.18 0.18 73 1013.5
20260508172300 8 232 3.2 3.2 0.00 0.18 0.18 72 1013.4
20260508171756 8 210 1.6 4.8 0.00 0.18 0.18 72 1013.3
20260508171253 8 176 0.0 1.6 0.00 0.18 0.18 72 1013.4
20260508170750 8 267 4.8 4.8 0.00 0.18 0.18 73 1013.4
20260508170248 8 131 1.6 1.6 0.00 0.18 0.18 75 1013.4
20260508165744 8 181 4.8 4.8 0.00 0.18 0.18 76 1013.4
20260508165242 7 98 0.0 1.6 0.00 0.18 0.18 79 1013.3
20260508164738 7 51 1.6 3.2 0.00 0.18 0.18 83 1013.4
20260508164234 6 195 4.8 8.0 0.00 0.18 0.18 85 1013.5
20260508163733 6 165 1.6 1.6 0.00 0.18 0.18 88 1013.6
20260508163230 6 185 3.2 3.2 0.00 0.18 0.18 89 1013.5
20260508162725 5 219 4.8 4.8 0.00 0.18 0.18 89 1013.7
20260508162223 5 183 3.2 3.2 0.00 0.18 0.18 90 1013.8
20260508161719 5 182 1.6 1.6 0.00 0.18 0.18 90 1014.0
20260508161217 4 141 0.0 1.6 0.00 0.18 0.18 90 1013.9
20260508160715 4 148 1.6 1.6 0.00 0.18 0.18 90 1014.0
20260508160213 4 232 3.2 3.2 0.00 0.18 0.18 90 1013.9
20260508155709 3 51 1.6 3.2 0.00 0.18 0.18 90 1013.8
20260508155206 3 180 0.0 1.6 0.00 0.18 0.18 90 1014.2
20260508154703 3 172 1.6 1.6 0.00 0.18 0.18 90 1014.1
20260508154200 3 267 1.6 3.2 0.00 0.18 0.18 90 1013.9
20260508153656 4 185 1.6 1.6 0.00 0.18 0.18 90 1013.9
20260508153154 3 180 0.0 1.6 0.00 0.18 0.18 90 1013.8
20260508152650 3 85 3.2 3.2 0.18 0.18 0.18 89 1013.7
20260508152146 3 148 1.6 1.6 0.18 0.18 0.18 89 1013.6
20260508151643 3 143 1.6 1.6 0.00 0.15 0.15 89 1013.9
20260508151139 3 183 1.6 1.6 0.00 0.15 0.15 89 1013.9
20260508150636 3 191 1.6 1.6 0.00 0.15 0.15 89 1013.8
20260508150133 3 216 1.6 1.6 0.00 0.15 0.15 89 1013.7
20260508145629 3 170 0.0 0.0 0.00 0.15 0.15 89 1013.4
20260508145125 3 167 0.0 0.0 0.00 0.15 0.15 89 1013.8
20260508144623 3 157 0.0 1.6 0.00 0.15 0.15 89 1013.8
20260508144121 3 340 3.2 3.2 0.00 0.15 0.15 88 1013.7
20260508143618 3 336 6.4 8.0 0.00 0.15 0.15 88 1013.7
20260508143114 3 20 8.0 9.7 0.00 0.15 0.15 88 1013.7
20260508142611 3 28 4.8 4.8 0.00 0.15 0.15 87 1013.9
20260508142108 3 22 3.2 3.2 0.13 0.15 0.15 87 1013.7
20260508141604 3 9 4.8 4.8 0.30 0.15 0.15 87 1013.7
20260508141102 3 327 4.8 4.8 0.18 0.13 0.13 86 1013.8
20260508140559 4 58 3.2 4.8 0.13 0.10 0.10 86 1013.8
20260508140055 4 19 9.7 12.9 0.13 0.10 0.10 85 1013.7
20260508135551 4 356 3.2 3.2 0.18 0.08 0.08 84 1013.7
20260508135047 5 294 8.0 9.7 0.18 0.08 0.08 83 1013.4
20260508134544 5 206 1.6 3.2 0.00 0.05 0.05 82 1013.4
20260508134041 5 193 3.2 3.2 0.00 0.05 0.05 81 1013.0
20260508133538 5 195 3.2 3.2 0.13 0.05 0.05 81 1013.3
20260508133035 5 189 1.6 1.6 0.30 0.05 0.05 79 1013.0
20260508132533 5 195 1.6 1.6 0.18 0.03 0.03 78 1012.8
20260508132030 6 243 3.2 4.8 0.00 0.00 0.00 79 1012.9
20260508131525 6 207 3.2 4.8 0.00 0.00 0.00 79 1012.8
20260508131022 6 167 0.0 1.6 0.00 0.00 0.00 80 1012.7
20260508130519 6 180 0.0 0.0 0.00 0.00 0.00 80 1012.5
20260508130015 6 171 1.6 3.2 0.00 0.00 0.00 81 1012.7
20260508125511 5 171 0.0 1.6 0.00 0.00 0.00 81 1012.4
20260508125009 5 162 1.6 1.6 0.00 0.00 0.00 81 1012.3
20260508124507 5 158 1.6 3.2 0.00 0.00 0.00 81 1012.0
20260508124004 6 159 1.6 1.6 0.00 0.00 0.00 81 1012.2
20260508123503 5 166 4.8 4.8 0.00 0.00 0.00 81 1012.1
20260508122958 5 136 4.8 4.8 0.00 0.00 0.00 82 1012.1
20260508122455 5 120 4.8 4.8 0.00 0.00 0.00 84 1012.1
20260508121952 5 117 3.2 3.2 0.00 0.00 0.00 85 1012.2
20260508121450 5 125 3.2 3.2 0.00 0.00 0.00 87 1012.2
20260508120948 4 181 4.8 4.8 0.00 0.00 0.00 87 1012.3
20260508120446 5 170 1.6 3.2 0.00 0.00 0.00 88 1012.4
20260508115943 5 162 3.2 3.2 0.00 0.00 0.00 89 1012.3
20260508115441 4 136 0.0 0.0 0.00 0.00 0.00 90 1012.3
20260508114937 3 153 3.2 3.2 0.00 0.00 0.00 90 1012.3
20260508114435 3 144 1.6 1.6 0.00 0.00 0.00 90 1012.4
20260508113931 3 151 1.6 1.6 0.00 0.00 0.00 90 1012.4
20260508113429 3 154 1.6 1.6 0.00 0.00 0.00 90 1012.4
20260508112926 2 145 1.6 1.6 0.00 0.00 0.00 91 1012.6
20260508112422 2 140 1.6 1.6 0.00 0.00 0.00 91 1012.6
20260508111919 2 144 0.0 0.0 0.00 0.00 0.00 90 1012.6
20260508111416 2 144 0.0 0.0 0.00 0.00 0.00 90 1012.7
20260508110913 2 146 0.0 0.0 0.00 0.00 0.00 90 1012.7
20260508110410 2 160 0.0 0.0 0.00 0.00 0.00 90 1013.0
20260508105904 2 151 0.0 0.0 0.00 0.00 0.00 90 1012.8
20260508105401 2 150 0.0 0.0 0.00 0.00 0.00 90 1012.8
20260508104859 2 151 1.6 1.6 0.00 0.00 0.00 90 1012.5
20260508104356 2 154 0.0 1.6 0.00 0.00 0.00 90 1012.5
20260508103853 2 153 0.0 0.0 0.00 0.00 0.00 90 1012.4
20260508103349 1 154 0.0 0.0 0.00 0.00 0.00 90 1012.5
20260508102847 1 153 0.0 0.0 0.00 0.00 0.00 90 1012.6
20260508102345 1 152 0.0 0.0 0.00 0.00 0.00 89 1012.8
20260508101842 1 151 0.0 0.0 0.00 0.00 0.00 89 1012.7
20260508101339 1 160 0.0 0.0 0.00 0.00 0.00 89 1012.8
20260508100837 1 152 0.0 0.0 0.00 0.00 0.00 89 1012.6
20260508100335 1 157 0.0 0.0 0.00 0.00 0.00 89 1012.6
20260508095830 1 145 0.0 0.0 0.00 0.00 0.00 89 1012.5
20260508095328 1 141 0.0 1.6 0.00 0.00 0.00 89 1012.6
20260508094825 1 153 0.0 0.0 0.00 0.00 0.00 88 1012.7
20260508094322 1 129 1.6 1.6 0.00 0.00 0.00 88 1012.5
20260508093819 1 138 1.6 1.6 0.00 0.00 0.00 88 1012.5
20260508093317 1 135 1.6 1.6 0.00 0.00 0.00 88 1012.5
20260508092814 1 150 0.0 0.0 0.00 0.00 0.00 88 1012.3
20260508092314 1 153 0.0 0.0 0.00 0.00 0.00 87 1012.3